TimeCST,TemperatureF,Dew PointF,Humidity,Sea Level PressureIn,VisibilityMPH,Wind Direction,Wind SpeedMPH,Gust SpeedMPH,PrecipitationIn,Events,Conditions,WindDirDegrees,DateUTC
12:15 AM,-30.3,-37.7,68,30.01,10.0,Calm,Calm,-,N/A,,Clear,0,2014-02-28 06:15:00
12:35 AM,-31.0,-38.6,67,30.02,10.0,Calm,Calm,-,N/A,,Clear,0,2014-02-28 06:35:00
12:55 AM,-31.4,-39.3,65,30.01,10.0,Calm,Calm,-,N/A,,Clear,0,2014-02-28 06:55:00
1:15 AM,-31.7,-38.9,68,30.01,10.0,Calm,Calm,-,N/A,,Clear,0,2014-02-28 07:15:00
1:35 AM,-29.4,-36.8,68,30.01,10.0,Calm,Calm,-,N/A,,Scattered Clouds,0,2014-02-28 07:35:00
1:55 AM,-29.2,-36.8,67,30.01,10.0,Calm,Calm,-,N/A,,Clear,0,2014-02-28 07:55:00
2:15 AM,-29.0,-36.8,66,30.01,10.0,Calm,Calm,-,N/A,,Clear,0,2014-02-28 08:15:00
2:35 AM,-30.1,-37.3,68,30.00,10.0,Calm,Calm,-,N/A,,Clear,0,2014-02-28 08:35:00
2:55 AM,-30.6,-37.7,69,29.99,10.0,Calm,Calm,-,N/A,,Clear,0,2014-02-28 08:55:00
3:15 AM,-31.7,-39.5,66,29.99,10.0,Calm,Calm,-,N/A,,Clear,0,2014-02-28 09:15:00
3:35 AM,-31.9,-39.5,67,29.98,10.0,Calm,Calm,-,N/A,,Clear,0,2014-02-28 09:35:00
3:55 AM,-32.1,-40.0,65,29.98,10.0,Calm,Calm,-,N/A,,Clear,0,2014-02-28 09:55:00
4:15 AM,-32.8,-40.9,65,29.98,10.0,Calm,Calm,-,N/A,,Clear,0,2014-02-28 10:15:00
4:35 AM,-30.5,-38.0,67,29.98,10.0,Calm,Calm,-,N/A,,Scattered Clouds,0,2014-02-28 10:35:00
4:55 AM,-30.3,-38.0,66,29.98,10.0,Calm,Calm,-,N/A,,Scattered Clouds,0,2014-02-28 10:55:00
5:15 AM,-28.3,-35.5,68,29.98,10.0,Calm,Calm,-,N/A,,Mostly Cloudy,0,2014-02-28 11:15:00
5:35 AM,-27.6,-35.0,68,29.98,10.0,Calm,Calm,-,N/A,,Mostly Cloudy,0,2014-02-28 11:35:00
5:55 AM,-27.6,-35.0,68,29.98,10.0,Calm,Calm,-,N/A,,Scattered Clouds,0,2014-02-28 11:55:00
6:15 AM,-25.6,-32.1,71,29.97,10.0,Calm,Calm,-,N/A,,Overcast,0,2014-02-28 12:15:00
6:35 AM,-22.9,-29.4,72,29.97,10.0,Calm,Calm,-,N/A,,Overcast,0,2014-02-28 12:35:00
6:55 AM,-17.5,-24.2,72,29.97,10.0,Calm,Calm,-,N/A,,Overcast,0,2014-02-28 12:55:00
7:15 AM,-14.1,-21.1,71,29.98,10.0,Calm,Calm,-,N/A,,Overcast,0,2014-02-28 13:15:00
7:35 AM,-10.8,-18.8,68,29.98,10.0,Calm,Calm,-,N/A,,Overcast,0,2014-02-28 13:35:00
7:55 AM,-8.3,-18.6,61,29.97,10.0,South,5.8,-,N/A,,Overcast,170,2014-02-28 13:55:00
8:15 AM,-6.0,-18.6,55,29.97,10.0,South,5.8,-,N/A,,Overcast,190,2014-02-28 14:15:00
8:35 AM,-4.5,-19.1,50,29.97,10.0,South,11.5,-,N/A,,Mostly Cloudy,180,2014-02-28 14:35:00
8:55 AM,-3.6,-18.4,49,29.97,10.0,South,6.9,-,N/A,,Overcast,190,2014-02-28 14:55:00
9:15 AM,-2.6,-17.3,50,29.96,10.0,SSE,9.2,-,N/A,,Mostly Cloudy,160,2014-02-28 15:15:00
9:35 AM,-1.1,-16.6,48,29.96,10.0,South,8.1,-,N/A,,Mostly Cloudy,180,2014-02-28 15:35:00
9:55 AM,0.1,-15.3,48,29.95,10.0,South,9.2,-,N/A,,Overcast,180,2014-02-28 15:55:00
10:15 AM,1.9,-14.8,46,29.94,10.0,South,9.2,-,N/A,,Overcast,190,2014-02-28 16:15:00
10:35 AM,3.2,-14.3,44,29.93,10.0,South,10.4,-,N/A,,Overcast,170,2014-02-28 16:35:00
10:55 AM,3.6,-13.5,45,29.92,10.0,South,9.2,-,N/A,,Overcast,180,2014-02-28 16:55:00
11:15 AM,3.9,-14.1,43,29.93,10.0,South,9.2,-,N/A,,Overcast,180,2014-02-28 17:15:00
11:35 AM,4.8,-13.4,43,29.91,10.0,SSE,8.1,-,N/A,,Overcast,160,2014-02-28 17:35:00
11:55 AM,6.3,-14.4,38,29.90,10.0,South,6.9,-,N/A,,Overcast,190,2014-02-28 17:55:00
12:15 PM,6.8,-14.4,37,29.90,10.0,SSE,10.4,-,N/A,,Overcast,160,2014-02-28 18:15:00
12:35 PM,7.9,-10.3,43,29.89,5.0,South,8.1,17.3,N/A,,Haze,190,2014-02-28 18:35:00
12:55 PM,8.1,-4.7,56,29.88,2.0,South,10.4,19.6,N/A,Snow,Light Snow,190,2014-02-28 18:55:00
1:15 PM,7.3,-2.7,63,29.87,2.0,South,10.4,17.3,N/A,Snow,Light Snow,190,2014-02-28 19:15:00
1:35 PM,7.2,-1.8,67,29.85,2.5,SSE,9.2,-,N/A,Snow,Light Snow,160,2014-02-28 19:35:00
1:55 PM,6.8,-1.7,68,29.85,3.0,SSE,10.4,18.4,N/A,Snow,Light Snow,160,2014-02-28 19:55:00
2:15 PM,7.2,-0.9,69,29.84,2.0,South,11.5,17.3,N/A,Snow,Light Snow,180,2014-02-28 20:15:00
2:35 PM,6.8,0.1,74,29.83,1.8,South,8.1,-,N/A,Snow,Light Snow,190,2014-02-28 20:35:00
2:55 PM,7.2,0.9,75,29.84,1.5,South,9.2,-,N/A,Snow,Light Snow,190,2014-02-28 20:55:00
3:15 PM,7.3,1.2,76,29.83,1.8,South,5.8,-,N/A,Snow,Light Snow,170,2014-02-28 21:15:00
3:35 PM,6.8,0.5,75,29.82,3.0,South,9.2,-,N/A,Snow,Light Snow,180,2014-02-28 21:35:00
3:55 PM,7.2,0.3,74,29.82,7.0,South,6.9,-,N/A,Snow,Light Snow,190,2014-02-28 21:55:00
4:15 PM,7.3,0.1,72,29.82,10.0,South,8.1,-,N/A,Snow,Light Snow,180,2014-02-28 22:15:00
4:35 PM,7.2,0.3,74,29.83,10.0,South,8.1,-,N/A,Snow,Light Snow,190,2014-02-28 22:35:00
4:55 PM,6.8,0.5,75,29.83,5.0,SSW,9.2,-,N/A,,Haze,200,2014-02-28 22:55:00
5:15 PM,7.0,0.9,76,29.83,4.0,South,4.6,-,N/A,Snow,Light Snow,190,2014-02-28 23:15:00
5:35 PM,6.8,1.4,79,29.84,2.0,SSW,4.6,-,N/A,Snow,Light Snow,200,2014-02-28 23:35:00
5:55 PM,6.6,1.4,79,29.84,3.0,SSW,3.5,-,N/A,Snow,Light Snow,210,2014-02-28 23:55:00
6:15 PM,6.8,1.4,79,29.85,5.0,SW,8.1,-,N/A,Snow,Light Snow,230,2014-03-01 00:15:00
6:35 PM,6.8,1.0,77,29.86,10.0,SW,5.8,-,N/A,,Overcast,230,2014-03-01 00:35:00
6:55 PM,6.6,1.2,79,29.87,10.0,WSW,3.5,-,N/A,Snow,Light Snow,240,2014-03-01 00:55:00
7:15 PM,6.6,1.4,79,29.88,5.0,SW,3.5,-,N/A,Snow,Light Snow,230,2014-03-01 01:15:00
7:35 PM,6.6,1.4,79,29.87,7.0,SW,4.6,-,N/A,Snow,Light Snow,220,2014-03-01 01:35:00
7:55 PM,6.6,1.4,79,29.88,10.0,WSW,3.5,-,N/A,Snow,Light Snow,240,2014-03-01 01:55:00
8:15 PM,6.3,1.2,80,29.88,10.0,West,4.6,-,N/A,Snow,Light Snow,260,2014-03-01 02:15:00
8:35 PM,6.3,0.9,78,29.89,10.0,West,3.5,-,N/A,Snow,Light Snow,260,2014-03-01 02:35:00
8:55 PM,6.3,0.5,77,29.90,10.0,West,4.6,-,N/A,,Overcast,270,2014-03-01 02:55:00
9:15 PM,5.7,0.1,78,29.90,10.0,West,5.8,-,N/A,,Mostly Cloudy,260,2014-03-01 03:15:00
9:35 PM,5.4,0.1,79,29.91,10.0,WSW,3.5,-,N/A,,Clear,250,2014-03-01 03:35:00
9:55 PM,5.0,-0.0,80,29.91,10.0,West,3.5,-,N/A,,Scattered Clouds,270,2014-03-01 03:55:00
10:15 PM,4.6,-0.4,80,29.91,10.0,West,5.8,-,N/A,,Scattered Clouds,260,2014-03-01 04:15:00
10:35 PM,4.8,-0.2,80,29.91,10.0,West,4.6,-,N/A,Snow,Light Snow,280,2014-03-01 04:35:00
10:55 PM,4.6,-0.4,80,29.91,7.0,West,4.6,-,N/A,Snow,Light Snow,280,2014-03-01 04:55:00
11:15 PM,4.5,-0.4,80,29.93,10.0,WNW,4.6,-,N/A,Snow,Light Snow,290,2014-03-01 05:15:00
11:35 PM,4.5,-0.4,80,29.94,10.0,West,3.5,-,N/A,Snow,Light Snow,280,2014-03-01 05:35:00
11:55 PM,4.1,-0.8,80,29.94,10.0,WNW,5.8,-,N/A,Snow,Light Snow,300,2014-03-01 05:55:00